EW9994 Weather Reports


time (UTC)temp
C
wind
direction
speed
KPH
gust
KPH
rain 1hr
cm
rain 24hr
cm
rain mn
cm
humidity
%
barometer
mb
20180821180412 28 314 1.6 3.2 0.00 0.00 0.00 48 1013.8
20180821173412 30 50 6.4 14.5 0.00 0.00 0.00 43 1013.7
20180821171912 31 346 6.4 9.7 0.00 0.00 0.00 42 1013.7
20180821170412 31 9 4.8 24.1 0.00 0.00 0.00 41 1013.8
20180821163912 31 62 11.3 19.3 0.00 0.00 0.00 39 1013.9
20180821161913 31 33 11.3 22.5 0.00 0.00 0.00 38 1013.7
20180821161414 31 8 16.1 25.7 0.00 0.00 0.00 37 1013.6
20180821160912 32 354 11.3 27.4 0.00 0.00 0.00 38 1013.5
20180821154913 32 36 11.3 20.9 0.00 0.00 0.00 36 1013.2
20180821154413 32 29 11.3 27.4 0.00 0.00 0.00 37 1013.2
20180821153912 32 351 17.7 25.7 0.00 0.00 0.00 36 1013.2
20180821153412 32 41 19.3 32.2 0.00 0.00 0.00 35 1013.2
20180821150913 32 27 19.3 35.4 0.00 0.00 0.00 35 1012.9
20180821144412 32 8 11.3 32.2 0.00 0.00 0.00 36 1012.9
20180821143913 33 16 19.3 32.2 0.00 0.00 0.00 35 1012.9
20180821143413 33 357 8.0 32.2 0.00 0.00 0.00 36 1012.9
20180821140912 33 43 11.3 27.4 0.00 0.00 0.00 35 1013.0
20180821140412 33 65 8.0 32.2 0.00 0.00 0.00 36 1013.1
20180821134913 32 7 20.9 35.4 0.00 0.00 0.00 37 1013.3
20180821134412 32 20 19.3 38.6 0.00 0.00 0.00 37 1013.5
20180821133912 33 3 19.3 37.0 0.00 0.00 0.00 36 1013.5
20180821130912 32 58 14.5 29.0 0.00 0.00 0.00 37 1013.9
20180821130412 32 73 19.3 32.2 0.00 0.00 0.00 36 1014.0
20180821124913 32 70 11.3 32.2 0.00 0.00 0.00 35 1014.1
20180821123912 32 87 12.9 27.4 0.00 0.00 0.00 35 1014.1
20180821121912 32 44 12.9 37.0 0.00 0.00 0.00 35 1014.3
20180821121412 32 40 19.3 29.0 0.00 0.00 0.00 35 1014.4
20180821120913 32 3 12.9 27.4 0.00 0.00 0.00 35 1014.4
20180821111413 32 33 17.7 32.2 0.00 0.00 0.00 33 1014.6
20180821110913 32 54 16.1 33.8 0.00 0.00 0.00 33 1014.7
20180821110412 32 76 14.5 32.2 0.00 0.00 0.00 34 1014.7
20180821104912 32 57 16.1 24.1 0.00 0.00 0.00 34 1014.8
20180821104412 32 99 11.3 22.5 0.00 0.00 0.00 34 1014.9
20180821103912 32 79 8.0 14.5 0.00 0.00 0.00 35 1014.9
20180821101412 32 45 16.1 27.4 0.00 0.00 0.00 36 1015.2
20180821100913 31 69 11.3 22.5 0.00 0.00 0.00 36 1015.1
20180821100412 31 53 14.5 27.4 0.00 0.00 0.00 37 1015.2
20180821093912 31 22 11.3 16.1 0.00 0.00 0.00 39 1015.2
20180821093412 31 106 9.7 25.7 0.00 0.00 0.00 41 1015.1
20180821091912 31 266 4.8 9.7 0.00 0.00 0.00 42 1015.1
20180821091413 31 240 6.4 14.5 0.00 0.00 0.00 42 1015.1
20180821090912 31 146 9.7 14.5 0.00 0.00 0.00 43 1015.1
20180821084912 30 206 9.7 14.5 0.00 0.00 0.00 46 1015.4
20180821084412 30 206 9.7 14.5 0.00 0.00 0.00 48 1015.4
20180821083912 29 177 9.7 12.9 0.00 0.00 0.00 48 1015.4
20180821083414 29 229 11.3 16.1 0.00 0.00 0.00 50 1015.3
20180821081913 28 241 9.7 14.5 0.00 0.00 0.00 52 1015.3
20180821080912 28 239 8.0 12.9 0.00 0.00 0.00 50 1015.3
20180821074912 27 204 9.7 12.9 0.00 0.00 0.00 51 1015.1
20180821074412 27 207 4.8 9.7 0.00 0.00 0.00 53 1015.3
20180821071413 26 241 1.6 4.8 0.00 0.00 0.00 60 1015.3
20180821070412 25 139 0.0 3.2 0.00 0.00 0.00 63 1015.3
20180821064912 25 125 3.2 3.2 0.00 0.00 0.00 64 1015.3
20180821064413 24 124 1.6 3.2 0.00 0.00 0.00 64 1015.3
20180821063413 24 108 0.0 4.8 0.00 0.00 0.00 65 1015.2
20180821061912 23 114 0.0 1.6 0.00 0.00 0.00 64 1015.2
20180821061414 23 240 0.0 1.6 0.00 0.00 0.00 63 1015.2
20180821054912 22 354 1.6 4.8 0.00 0.00 0.00 64 1014.9
20180821051413 21 67 8.0 11.3 0.00 0.00 0.00 69 1014.7
20180821050911 21 53 8.0 9.7 0.00 0.00 0.00 69 1014.7
20180821050412 21 37 6.4 9.7 0.00 0.00 0.00 69 1014.7
20180821044912 21 53 4.8 8.0 0.00 0.00 0.00 68 1014.7
20180821044412 21 57 4.8 8.0 0.00 0.00 0.00 68 1014.7
20180821043912 21 47 4.8 8.0 0.00 0.00 0.00 70 1014.7
20180821043412 21 26 8.0 9.7 0.00 0.00 0.00 70 1014.7
20180821041912 21 30 1.6 1.6 0.00 0.00 0.00 69 1014.7
20180821041411 21 334 1.6 3.2 0.00 0.00 0.00 69 1014.6
20180821040412 21 120 0.0 8.0 0.00 0.00 0.00 70 1014.6
20180821034912 21 53 3.2 8.0 0.00 0.00 0.00 70 1014.5
20180821034412 21 40 6.4 8.0 0.00 0.00 0.00 69 1014.5
20180821033911 21 53 3.2 9.7 0.00 0.00 0.00 70 1014.5
20180821031911 21 47 3.2 9.7 0.00 0.00 0.00 70 1014.4
20180821031412 21 30 1.6 3.2 0.00 0.00 0.00 69 1014.4
20180821030412 21 26 0.0 9.7 0.00 0.00 0.00 68 1014.4
20180821024412 22 58 1.6 4.8 0.00 0.00 0.00 68 1014.4
20180821023911 22 47 0.0 8.0 0.00 0.00 0.00 68 1014.4
20180821023411 22 69 1.6 9.7 0.00 0.00 0.00 69 1014.4
20180821021911 21 73 0.0 3.2 0.00 0.00 0.00 68 1014.4
20180821021410 22 57 1.6 4.8 0.00 0.00 0.00 67 1014.5
20180821014912 22 45 9.7 11.3 0.00 0.00 0.00 65 1014.6
20180821013911 22 42 4.8 9.7 0.00 0.00 0.00 65 1014.7
20180821013411 22 44 4.8 8.0 0.00 0.00 0.00 64 1014.6
20180821011911 22 47 1.6 4.8 0.00 0.00 0.00 65 1014.6
20180821011411 22 14 1.6 3.2 0.00 0.00 0.00 65 1014.6
20180821010411 22 77 1.6 4.8 0.00 0.00 0.00 65 1014.6
20180821004911 22 58 1.6 9.7 0.00 0.00 0.00 64 1014.6
20180821004411 22 46 4.8 8.0 0.00 0.00 0.00 64 1014.6
20180821003411 22 36 4.8 11.3 0.00 0.00 0.00 64 1014.6
20180821001412 23 55 3.2 4.8 0.00 0.00 0.00 63 1014.7
20180821000911 23 45 4.8 4.8 0.00 0.00 0.00 64 1014.7
20180821000411 23 50 3.2 4.8 0.00 0.00 0.00 65 1014.7
20180820234911 23 44 0.0 0.0 0.00 0.00 0.00 63 1014.7
20180820233412 23 37 4.8 9.7 0.00 0.00 0.00 62 1014.5
20180820231911 23 60 3.2 4.8 0.00 0.00 0.00 63 1014.5
20180820231412 24 143 0.0 1.6 0.00 0.00 0.00 63 1014.5
20180820230910 24 143 0.0 3.2 0.00 0.00 0.00 63 1014.4
20180820230411 24 72 1.6 4.8 0.00 0.00 0.00 63 1014.5
20180820224911 23 46 1.6 3.2 0.00 0.00 0.00 66 1014.5
20180820224411 23 46 1.6 4.8 0.00 0.00 0.00 68 1014.5
20180820223912 23 57 0.0 3.2 0.00 0.00 0.00 67 1014.5
20180820221411 23 48 9.7 12.9 0.00 0.00 0.00 66 1014.5
20180820220411 23 43 8.0 12.9 0.00 0.00 0.00 66 1014.6
20180820214412 23 55 8.0 11.3 0.00 0.00 0.00 66 1014.6
20180820213912 23 37 6.4 9.7 0.00 0.00 0.00 65 1014.6
20180820210911 24 35 9.7 16.1 0.00 0.00 0.00 63 1014.6
20180820210411 24 25 11.3 19.3 0.00 0.00 0.00 62 1014.6
20180820204911 24 34 11.3 14.5 0.00 0.00 0.00 61 1014.6
20180820204411 24 39 9.7 12.9 0.00 0.00 0.00 60 1014.6
20180820203910 24 44 9.7 16.1 0.00 0.00 0.00 60 1014.6
20180820203411 24 38 9.7 19.3 0.00 0.00 0.00 60 1014.6
20180820201910 25 34 11.3 19.3 0.00 0.00 0.00 59 1014.5
20180820201410 25 43 12.9 19.3 0.00 0.00 0.00 59 1014.4
20180820200911 25 35 9.7 12.9 0.00 0.00 0.00 59 1014.4
20180820200410 25 41 9.7 16.1 0.00 0.00 0.00 58 1014.4
20180820194911 25 43 9.7 16.1 0.00 0.00 0.00 58 1014.3
20180820194411 25 49 9.7 14.5 0.00 0.00 0.00 58 1014.3
20180820191910 26 38 4.8 4.8 0.00 0.00 0.00 54 1014.3
20180820191411 26 49 3.2 8.0 0.00 0.00 0.00 53 1014.2
20180820190911 26 35 6.4 11.3 0.00 0.00 0.00 52 1014.2
20180820184410 27 47 9.7 14.5 0.00 0.00 0.00 49 1013.9
20180820183911 27 50 9.7 16.1 0.00 0.00 0.00 49 1013.8
20180820181912 28 48 8.0 14.5 0.00 0.00 0.00 47 1013.6
20180820181412 28 50 8.0 16.1 0.00 0.00 0.00 46 1013.5
20180820180910 29 51 8.0 12.9 0.00 0.00 0.00 45 1013.4